���t,����,�O�C���x,�����t���O,�O�C���Ύ��x,�����t���O,���ԋ�C���x,�����t���O,���ԑ��Ύ��x,�����t���O,�g�C���^���N����,�����t���O,���֋�C���x,�����t���O,��g�[�����x,�����t���O
2003/4/1,0:00,18.8,0,74,0,20.8,0,55.7,0,16.7,0,20.5,0,20.8,0
2003/4/1,0:15,18.9,0,74,0,20.8,0,55.9,0,16.9,0,20.5,0,20.8,0
2003/4/1,0:30,18.9,0,74,0,20.8,0,56.1,0,16.9,0,20.5,0,20.7,0
2003/4/1,0:45,18.8,0,74,0,20.7,0,56.2,0,17.1,0,20.5,0,20.7,0
2003/4/1,1:00,18.8,0,75,0,20.7,0,56.4,0,17.1,0,20.5,0,20.7,0
2003/4/1,1:15,18.4,0,78,0,20.7,0,56.6,0,17.2,0,20.5,0,20.7,0
2003/4/1,1:30,17.9,0,79,0,20.6,0,56.7,0,17.3,0,20.5,0,20.6,0
2003/4/1,1:45,17.5,0,79,0,20.6,0,57,0,17.4,0,20.5,0,20.6,0
2003/4/1,2:00,17.4,0,81,0,20.6,0,57.5,0,17.5,0,20.5,0,20.6,0
2003/4/1,2:15,16.9,0,83,0,20.5,0,57.8,0,17.6,0,20.5,0,20.5,0
2003/4/1,2:30,16,0,85,0,20.5,0,58,0,17.7,0,20.5,0,20.5,0
2003/4/1,2:45,16,0,87,0,20.5,0,58.2,0,17.8,0,20.5,0,20.4,0
2003/4/1,3:00,15.9,0,87,0,20.4,0,58.5,0,17.8,0,20.5,0,20.3,0
2003/4/1,3:15,15.9,0,87,0,20.4,0,58.5,0,17.9,0,20.5,0,20.3,0
2003/4/1,3:30,15.7,0,87,0,20.3,0,58.8,0,18,0,20.5,0,20.2,0
2003/4/1,3:45,15.6,0,88,0,20.3,0,58.9,0,18.1,0,20.5,0,20.1,0
2003/4/1,4:00,15.6,0,89,0,20.2,0,58.9,0,18.2,0,20.4,0,20.1,0
2003/4/1,4:15,15.6,0,89,0,20.1,0,59,0,18.2,0,20.4,0,20,0
2003/4/1,4:30,15.5,0,91,0,20.1,0,59.1,0,18.3,0,20.4,0,19.9,0
2003/4/1,4:45,15.5,0,92,0,20,0,59.1,0,18.4,0,20.3,0,19.9,0
2003/4/1,5:00,15.7,0,93,0,19.9,0,59.3,0,18.5,0,20.3,0,19.8,0
2003/4/1,5:15,15.6,0,94,0,19.9,0,59.4,0,18.5,0,20.3,0,19.8,0
2003/4/1,5:30,15.5,0,96,0,19.9,0,59.5,0,18.6,0,20.3,0,19.7,0
2003/4/1,5:45,15.4,0,98,0,19.8,0,59.6,0,18.7,0,20.2,0,19.7,0
2003/4/1,6:00,15.5,0,98,0,19.8,0,59.7,0,18.7,0,20.2,0,19.6,0
2003/4/1,6:15,15.5,0,99,0,19.7,0,59.9,0,18.8,0,20.2,0,19.6,0
2003/4/1,6:30,15.5,0,99,0,19.7,0,60,0,18.8,0,20.1,0,19.5,0
2003/4/1,6:45,15.7,0,99,0,19.7,0,60.2,0,18.9,0,20.1,0,19.5,0
2003/4/1,7:00,15.6,0,98,0,19.6,0,60.3,0,19,0,20.1,0,19.5,0
2003/4/1,7:15,15.6,0,97,0,19.6,0,60.5,0,19,0,20,0,19.4,0
2003/4/1,7:30,15.4,0,96,0,19.6,0,60.7,0,19.1,0,20,0,19.4,0
2003/4/1,7:45,15.3,0,93,0,19.6,0,60.8,0,19.1,0,19.8,0,19.4,0
2003/4/1,8:00,15.2,0,91,0,19.5,0,61.2,0,14.6,0,19.8,0,19.3,0
2003/4/1,8:15,15.2,0,92,0,19.5,0,61.6,0,14.7,0,19.7,0,19.3,0
2003/4/1,8:30,15.3,0,93,0,19.5,0,62.5,0,14.8,0,19.7,0,19.3,0
2003/4/1,8:45,15.3,0,91,0,19.4,0,62.7,0,14.9,0,19.6,0,19.2,0
2003/4/1,9:00,15.5,0,91,0,19.4,0,62.7,0,15,0,19.6,0,19.2,0
2003/4/1,9:15,15.7,0,91,0,19.4,0,62.7,0,15.1,0,19.5,0,19.2,0
2003/4/1,9:30,15.6,0,90,0,19.3,0,62.5,0,15.2,0,19.5,0,19.2,0
2003/4/1,9:45,15.6,0,90,0,19.3,0,62.4,0,15.4,0,19.5,0,19.2,0
2003/4/1,10:00,15.5,0,89,0,19.3,0,62.3,0,15.5,0,19.4,0,19.1,0
2003/4/1,10:15,15.5,0,89,0,19.3,0,62.3,0,15.6,0,19.4,0,19.1,0
2003/4/1,10:30,15.7,0,88,0,19.2,0,62.3,0,15.7,0,19.3,0,19.1,0
2003/4/1,10:45,15.7,0,86,0,19.2,0,62.2,0,15.8,0,19.3,0,19.1,0
2003/4/1,11:00,15.7,0,85,0,19.2,0,62.2,0,15.9,0,19.3,0,19.1,0
2003/4/1,11:15,15.7,0,84,0,19.2,0,62.2,0,16,0,19.2,0,19.1,0
2003/4/1,11:30,15.6,0,85,0,19.2,0,62.1,0,16.1,0,19.2,0,19,0
2003/4/1,11:45,15.5,0,86,0,19.1,0,62.4,0,16.2,0,19.2,0,19,0
2003/4/1,12:00,15.5,0,86,0,19.1,0,62.5,0,16.3,0,19.1,0,19,0
2003/4/1,12:15,16,0,84,0,19.1,0,62.4,0,16.4,0,19.1,0,19,0
2003/4/1,12:30,16.5,0,81,0,19.1,0,62.4,0,16.5,0,19.1,0,19,0
2003/4/1,12:45,16.7,0,79,0,19.1,0,62.3,0,16.6,0,19.1,0,19,0
2003/4/1,13:00,16.8,0,77,0,19.1,0,62.1,0,16.7,0,19.1,0,19,0
2003/4/1,13:15,16.9,0,76,0,19.1,0,61.9,0,16.8,0,19,0,19,0
2003/4/1,13:30,17.1,0,76,0,19.1,0,61.9,0,16.9,0,19,0,19.1,0
2003/4/1,13:45,17.4,0,74,0,19.1,0,61.8,0,17,0,19,0,19.1,0
2003/4/1,14:00,17.3,0,74,0,19.2,0,61.6,0,17,0,19,0,19.1,0
2003/4/1,14:15,17.5,0,76,0,19.2,0,61.5,0,17.1,0,19,0,19.1,0
2003/4/1,14:30,17.3,0,76,0,19.2,0,61.4,0,17.2,0,19,0,19.2,0
2003/4/1,14:45,18,0,74,0,19.2,0,61.3,0,17.3,0,19,0,19.2,0
2003/4/1,15:00,18.4,0,69,0,19.3,0,61.2,0,17.3,0,19,0,19.2,0
2003/4/1,15:15,18.9,0,66,0,19.3,0,61,0,17.4,0,19,0,19.3,0
2003/4/1,15:30,19.1,0,65,0,19.3,0,60.8,0,17.5,0,19,0,19.4,0
2003/4/1,15:45,19.5,0,65,0,19.4,0,60.8,0,17.6,0,19,0,19.4,0
2003/4/1,16:00,19.4,0,64,0,19.5,0,61.2,0,17.7,0,19,0,19.5,0
2003/4/1,16:15,18.8,0,65,0,19.6,0,60.7,0,14.4,0,19.1,0,19.6,0
2003/4/1,16:30,18.3,0,67,0,19.6,0,60.6,0,14.5,0,19.1,0,19.7,0
2003/4/1,16:45,18.1,0,67,0,19.6,0,60.6,0,14.6,0,19.1,0,19.8,0
2003/4/1,17:00,17.6,0,70,0,19.6,0,60.6,0,14.7,0,19.1,0,19.8,0
2003/4/1,17:15,17.4,0,70,0,19.6,0,60.5,0,14.8,0,19.1,0,19.9,0
2003/4/1,17:30,17.3,0,71,0,19.6,0,60.7,0,14.9,0,19.1,0,19.9,0
2003/4/1,17:45,17,0,73,0,19.6,0,60.7,0,15,0,19.1,0,19.9,0
2003/4/1,18:00,16.9,0,74,0,19.6,0,60.8,0,15.1,0,19.1,0,20,0
2003/4/1,18:15,16.7,0,74,0,19.6,0,60.8,0,15.2,0,19.1,0,19.9,0
2003/4/1,18:30,16.4,0,75,0,19.6,0,60.8,0,15.3,0,19.1,0,19.9,0
2003/4/1,18:45,16.1,0,77,0,19.5,0,60.9,0,15.4,0,19.1,0,19.9,0
2003/4/1,19:00,16,0,78,0,19.5,0,61,0,15.5,0,19.1,0,19.9,0
2003/4/1,19:15,15.8,0,79,0,19.4,0,61,0,15.6,0,19.1,0,19.8,0
2003/4/1,19:30,15.8,0,80,0,19.4,0,61,0,15.7,0,19.1,0,19.8,0
2003/4/1,19:45,15.7,0,80,0,19.3,0,61,0,15.8,0,19,0,19.7,0
2003/4/1,20:00,15.7,0,80,0,19.3,0,61.3,0,16,0,19,0,19.6,0
2003/4/1,20:15,15.6,0,80,0,19.3,0,61.3,0,16.1,0,19,0,19.6,0
2003/4/1,20:30,15.5,0,81,0,19.2,0,61.3,0,16.1,0,19,0,19.5,0
2003/4/1,20:45,15.5,0,81,0,19.2,0,61.5,0,16.3,0,19,0,19.5,0
2003/4/1,21:00,15.5,0,80,0,19.1,0,61.5,0,16.3,0,18.9,0,19.4,0
2003/4/1,21:15,15.6,0,80,0,19.1,0,61.6,0,16.4,0,18.9,0,19.4,0
2003/4/1,21:30,15.4,0,80,0,19.1,0,61.9,0,16.5,0,18.9,0,19.3,0
2003/4/1,21:45,15.4,0,80,0,19,0,61.8,0,16.6,0,18.9,0,19.3,0
2003/4/1,22:00,15.3,0,81,0,19,0,61.9,0,16.7,0,18.8,0,19.2,0
2003/4/1,22:15,15.2,0,81,0,18.9,0,61.9,0,16.8,0,18.8,0,19.2,0
2003/4/1,22:30,15.2,0,82,0,18.9,0,62,0,16.9,0,18.8,0,19.1,0
2003/4/1,22:45,15.1,0,82,0,18.9,0,62,0,17,0,18.8,0,19.1,0
2003/4/1,23:00,15,0,82,0,18.8,0,62.1,0,17,0,18.7,0,19,0
2003/4/1,23:15,15,0,82,0,18.8,0,62,0,17.1,0,18.7,0,18.9,0
2003/4/1,23:30,14.9,0,83,0,18.8,0,62.3,0,15.1,0,18.8,0,18.9,0
2003/4/1,23:45,14.8,0,83,0,18.9,0,63,0,15.2,0,18.8,0,18.9,0
2003/4/2,0:00,14.8,0,83,0,19,0,63.3,0,15.3,0,18.7,0,18.8,0
2003/4/2,0:15,14.8,0,83,0,19,0,63.9,0,15.4,0,18.6,0,18.7,0
2003/4/2,0:30,14.6,0,84,0,19,0,63.9,0,15.5,0,18.6,0,18.7,0
2003/4/2,0:45,14.7,0,84,0,19.1,0,63.7,0,15.5,0,18.6,0,18.6,0
2003/4/2,1:00,14.6,0,83,0,19,0,62.8,0,14.5,0,18.5,0,18.6,0
2003/4/2,1:15,14.6,0,83,0,19,0,62.5,0,14.6,0,18.5,0,18.6,0
2003/4/2,1:30,14.5,0,83,0,18.9,0,62.3,0,14.7,0,18.5,0,18.5,0
2003/4/2,1:45,14.3,0,83,0,18.9,0,62.2,0,14.8,0,18.4,0,18.5,0
2003/4/2,2:00,14.3,0,83,0,18.8,0,62,0,14.9,0,18.4,0,18.4,0
2003/4/2,2:15,14.2,0,83,0,18.8,0,62,0,15,0,18.4,0,18.4,0
2003/4/2,2:30,14.2,0,83,0,18.7,0,61.9,0,15.1,0,18.3,0,18.3,0
2003/4/2,2:45,14.1,0,83,0,18.7,0,61.8,0,15.2,0,18.3,0,18.3,0
2003/4/2,3:00,14.2,0,83,0,18.7,0,61.8,0,15.3,0,18.3,0,18.2,0
2003/4/2,3:15,14.3,0,82,0,18.6,0,61.7,0,15.3,0,18.2,0,18.2,0
2003/4/2,3:30,14.3,0,82,0,18.5,0,61.8,0,15.5,0,18.2,0,18.2,0
2003/4/2,3:45,14.3,0,81,0,18.5,0,61.7,0,15.5,0,18.2,0,18.1,0
2003/4/2,4:00,14.4,0,80,0,18.5,0,61.8,0,15.6,0,18.1,0,18.1,0
2003/4/2,4:15,14.2,0,80,0,18.4,0,61.9,0,15.8,0,18.1,0,18,0
2003/4/2,4:30,14.2,0,78,0,18.4,0,61.8,0,15.8,0,18.1,0,18,0
2003/4/2,4:45,14.2,0,82,0,18.3,0,61.8,0,15.9,0,18,0,18,0
2003/4/2,5:00,14.1,0,83,0,18.3,0,61.9,0,16,0,18,0,17.9,0
2003/4/2,5:15,14.2,0,82,0,18.3,0,61.9,0,16.1,0,18,0,17.9,0
2003/4/2,5:30,14.2,0,81,0,18.2,0,61.9,0,16.2,0,17.9,0,17.9,0
2003/4/2,5:45,14.2,0,81,0,18.2,0,61.9,0,16.3,0,17.9,0,17.8,0
2003/4/2,6:00,14.2,0,83,0,18.2,0,61.9,0,16.4,0,17.9,0,17.8,0
2003/4/2,6:15,14,0,84,0,18.1,0,62.1,0,16.4,0,17.8,0,17.8,0
2003/4/2,6:30,14.1,0,83,0,18.1,0,62.1,0,16.5,0,17.8,0,17.8,0
2003/4/2,6:45,14,0,83,0,18.1,0,62.1,0,16.6,0,17.8,0,17.7,0
2003/4/2,7:00,14,0,83,0,18,0,62.8,0,14.3,0,17.8,0,17.7,0
2003/4/2,7:15,14.1,0,84,0,18,0,64.7,0,14.3,0,17.8,0,17.7,0
2003/4/2,7:30,14.2,0,83,0,18.1,0,66,0,14.4,0,17.7,0,17.7,0
2003/4/2,7:45,14.2,0,82,0,18.1,0,66.1,0,14.5,0,17.8,0,17.7,0
2003/4/2,8:00,14.4,0,82,0,18.1,0,66.6,0,14,0,17.8,0,17.7,0
2003/4/2,8:15,14.5,0,81,0,18.1,0,67.2,0,14.1,0,17.8,0,17.7,0
2003/4/2,8:30,14.8,0,79,0,18.2,0,67.5,0,14,0,17.8,0,17.7,0
2003/4/2,8:45,15,0,79,0,18.2,0,66.7,0,13.9,0,17.8,0,17.8,0
2003/4/2,9:00,15.2,0,79,0,18.2,0,66,0,14,0,17.8,0,17.8,0
2003/4/2,9:15,15.2,0,79,0,18.2,0,65.4,0,14.1,0,17.8,0,17.8,0
2003/4/2,9:30,15.3,0,80,0,18.2,0,64.8,0,14.2,0,17.8,0,17.8,0
2003/4/2,9:45,15.2,0,81,0,18.2,0,64.4,0,14.2,0,17.8,0,17.8,0
2003/4/2,10:00,15.6,0,80,0,18.3,0,64.2,0,14.3,0,17.8,0,17.8,0
2003/4/2,10:15,15.5,0,81,0,18.3,0,63.9,0,14.4,0,17.8,0,17.8,0
2003/4/2,10:30,15.8,0,80,0,18.3,0,64.1,0,14.5,0,17.8,0,17.9,0
2003/4/2,10:45,16,0,79,0,18.3,0,64.1,0,14.5,0,17.8,0,17.9,0
2003/4/2,11:00,16,0,79,0,18.4,0,63.9,0,14.6,0,17.8,0,17.9,0
2003/4/2,11:15,15.9,0,79,0,18.4,0,63.7,0,14.7,0,17.8,0,18,0
2003/4/2,11:30,15.7,0,80,0,18.4,0,63.6,0,14.8,0,17.8,0,18,0
2003/4/2,11:45,15.9,0,80,0,18.4,0,63.6,0,14.9,0,17.8,0,18,0
2003/4/2,12:00,15.9,0,79,0,18.5,0,63.6,0,15,0,17.9,0,18.1,0
2003/4/2,12:15,15.9,0,79,0,18.5,0,63.7,0,15,0,17.9,0,18.1,0
2003/4/2,12:30,15.6,0,79,0,18.5,0,64,0,14.4,0,17.9,0,18.2,0
2003/4/2,12:45,15.1,0,81,0,18.6,0,64.2,0,14.5,0,17.9,0,18.2,0
2003/4/2,13:00,14.8,0,82,0,18.6,0,64,0,14.6,0,17.9,0,18.2,0
2003/4/2,13:15,14.6,0,82,0,18.6,0,64.1,0,14.7,0,17.9,0,18.3,0
2003/4/2,13:30,14.3,0,83,0,18.8,0,64.1,0,14.7,0,17.9,0,18.3,0
2003/4/2,13:45,14.2,0,84,0,18.8,0,63.4,0,14.8,0,18,0,18.3,0
2003/4/2,14:00,13.9,0,85,0,18.8,0,63,0,14.9,0,17.9,0,18.2,0
2003/4/2,14:15,13.8,0,85,0,18.7,0,62.9,0,15,0,17.9,0,18.2,0
2003/4/2,14:30,13.5,0,87,0,18.7,0,62.6,0,15.1,0,17.9,0,18.1,0
2003/4/2,14:45,13.4,0,87,0,18.7,0,62.5,0,15.1,0,17.9,0,18.1,0
2003/4/2,15:00,13.2,0,89,0,18.6,0,62.4,0,15.3,0,17.9,0,18,0
2003/4/2,15:15,13.1,0,90,0,18.5,0,62.3,0,15.3,0,17.9,0,18,0
2003/4/2,15:30,12.9,0,91,0,18.5,0,62.3,0,15.4,0,17.9,0,17.9,0
2003/4/2,15:45,12.6,0,92,0,18.4,0,62.3,0,15.5,0,17.8,0,17.8,0
2003/4/2,16:00,12.6,0,92,0,18.4,0,62.2,0,15.6,0,17.8,0,17.8,0
2003/4/2,16:15,12.5,0,92,0,18.3,0,62.2,0,15.7,0,17.8,0,17.7,0
2003/4/2,16:30,12.5,0,91,0,18.3,0,62.2,0,15.8,0,17.8,0,17.7,0
2003/4/2,16:45,12.3,0,91,0,18.2,0,62.2,0,15.8,0,17.7,0,17.6,0
2003/4/2,17:00,12.3,0,91,0,18.1,0,62.2,0,15.9,0,17.7,0,17.5,0
2003/4/2,17:15,12.2,0,92,0,18.1,0,62.1,0,16,0,17.7,0,17.5,0
2003/4/2,17:30,12.1,0,92,0,18,0,62,0,16.1,0,17.6,0,17.4,0
2003/4/2,17:45,12.2,0,92,0,18,0,62.1,0,16.1,0,17.6,0,17.3,0
2003/4/2,18:00,12.3,0,91,0,17.9,0,62.2,0,16.2,0,17.5,0,17.3,0
2003/4/2,18:15,12.1,0,92,0,17.9,0,62.1,0,16.2,0,17.5,0,17.2,0
2003/4/2,18:30,12.2,0,92,0,17.8,0,62.1,0,16.3,0,17.5,0,17.2,0
2003/4/2,18:45,12.2,0,93,0,17.7,0,62.2,0,16.4,0,17.4,0,17.1,0
2003/4/2,19:00,12.3,0,94,0,17.7,0,62.3,0,16.4,0,17.4,0,17.1,0
2003/4/2,19:15,12.1,0,94,0,17.6,0,62.3,0,16.5,0,17.4,0,17,0
2003/4/2,19:30,12.2,0,95,0,17.6,0,62.3,0,16.5,0,17.3,0,17,0
2003/4/2,19:45,12.2,0,96,0,17.5,0,62.4,0,16.6,0,17.3,0,16.9,0
2003/4/2,20:00,12.1,0,97,0,17.5,0,62.3,0,16.7,0,17.2,0,16.9,0
2003/4/2,20:15,12.1,0,97,0,17.4,0,62.4,0,16.7,0,17.2,0,16.8,0
2003/4/2,20:30,12.1,0,96,0,17.4,0,62.5,0,16.7,0,17.2,0,16.8,0
2003/4/2,20:45,12.2,0,95,0,17.3,0,62.6,0,16.8,0,17.1,0,16.7,0
2003/4/2,21:00,12.3,0,94,0,17.3,0,62.6,0,16.8,0,17.1,0,16.7,0
2003/4/2,21:15,12.3,0,93,0,17.3,0,63.1,0,16.9,0,17.1,0,16.6,0
2003/4/2,21:30,12.3,0,93,0,17.3,0,63.4,0,14.7,0,17.1,0,16.6,0
2003/4/2,21:45,12.3,0,93,0,17.3,0,63.5,0,14.8,0,17.1,0,16.6,0
2003/4/2,22:00,12.3,0,93,0,17.4,0,64.2,0,14.1,0,17,0,16.5,0
2003/4/2,22:15,12.3,0,92,0,17.6,0,64.5,0,14.1,0,17,0,16.5,0
2003/4/2,22:30,12.3,0,91,0,17.8,0,64.7,0,14.2,0,17,0,16.5,0
2003/4/2,22:45,12.5,0,90,0,18.1,0,64.6,0,14.3,0,16.9,0,16.4,0
2003/4/2,23:00,12.5,0,90,0,18.3,0,64.2,0,14.3,0,16.9,0,16.4,0
2003/4/2,23:15,12.4,0,90,0,18.3,0,63.5,0,14.4,0,16.9,0,16.4,0
2003/4/2,23:30,12.5,0,89,0,18.2,0,61.6,0,14.5,0,17,0,16.4,0
2003/4/2,23:45,12.4,0,88,0,18.1,0,61.6,0,13.9,0,17.1,0,16.4,0
2003/4/3,0:00,12.4,0,89,0,17.9,0,61.7,0,14,0,17.1,0,16.4,0
2003/4/3,0:15,12.4,0,88,0,17.8,0,61.8,0,14.1,0,17.2,0,16.4,0
2003/4/3,0:30,12.5,0,88,0,17.8,0,61.8,0,14.2,0,17.1,0,16.4,0
2003/4/3,0:45,12.5,0,87,0,17.9,0,62.3,0,14.2,0,17,0,16.4,0
2003/4/3,1:00,12.4,0,88,0,18,0,62.4,0,14.3,0,16.9,0,16.3,0
2003/4/3,1:15,12.3,0,88,0,18.1,0,62.6,0,14.4,0,16.9,0,16.3,0
2003/4/3,1:30,12.3,0,88,0,18.2,0,62.5,0,14.4,0,16.8,0,16.2,0
2003/4/3,1:45,12.3,0,89,0,18.4,0,66.7,0,14.2,0,16.8,0,16.2,0
2003/4/3,2:00,12.2,0,88,0,18.5,0,70.5,0,14.2,0,16.8,0,16.2,0
2003/4/3,2:15,12,0,87,0,18.5,0,66.5,0,14,0,16.8,0,16.3,0
2003/4/3,2:30,12.1,0,86,0,18.3,0,65,0,14,0,16.8,0,16.3,0
2003/4/3,2:45,12,0,85,0,18.2,0,64.5,0,14.1,0,16.8,0,16.3,0
2003/4/3,3:00,12,0,84,0,18,0,64.1,0,14.1,0,16.8,0,16.3,0
2003/4/3,3:15,11.9,0,84,0,17.9,0,63.7,0,14.2,0,16.7,0,16.3,0
2003/4/3,3:30,11.9,0,83,0,17.8,0,63.5,0,14.3,0,16.7,0,16.3,0
2003/4/3,3:45,12,0,82,0,17.7,0,63.3,0,14.3,0,16.7,0,16.2,0
2003/4/3,4:00,11.9,0,81,0,17.6,0,63.1,0,14.4,0,16.6,0,16.2,0
2003/4/3,4:15,12,0,78,0,17.5,0,63,0,14.4,0,16.6,0,16.2,0
2003/4/3,4:30,12,0,78,0,17.4,0,63,0,14.5,0,16.6,0,16.1,0
2003/4/3,4:45,12,0,78,0,17.4,0,62.9,0,14.6,0,16.6,0,16.1,0
2003/4/3,5:00,11.8,0,79,0,17.3,0,62.8,0,14.6,0,16.5,0,16.1,0
2003/4/3,5:15,11.9,0,79,0,17.2,0,62.8,0,14.7,0,16.5,0,16,0
2003/4/3,5:30,11.9,0,79,0,17.1,0,62.7,0,14.8,0,16.5,0,16,0
2003/4/3,5:45,11.9,0,78,0,17,0,62.6,0,14.8,0,16.4,0,16,0
2003/4/3,6:00,11.9,0,77,0,17,0,62.9,0,14.9,0,16.4,0,15.9,0
2003/4/3,6:15,11.8,0,77,0,16.9,0,63.6,0,14.9,0,16.4,0,15.9,0
2003/4/3,6:30,11.9,0,76,0,16.9,0,63.4,0,15,0,16.3,0,15.9,0
2003/4/3,6:45,12,0,76,0,16.8,0,63.2,0,15,0,16.3,0,15.9,0
2003/4/3,7:00,12,0,75,0,16.7,0,63.1,0,15.1,0,16.3,0,15.8,0
2003/4/3,7:15,12,0,75,0,16.7,0,63,0,15.2,0,16.2,0,15.8,0
2003/4/3,7:30,12.3,0,74,0,17.1,0,64.6,0,14,0,16.3,0,15.9,0
2003/4/3,7:45,13,0,71,0,17.6,0,63.8,0,14.1,0,16.3,0,16.1,0
2003/4/3,8:00,12.9,0,70,0,18,0,62.5,0,14,0,16.3,0,16.1,0
2003/4/3,8:15,13.3,0,69,0,18.1,0,61.6,0,14,0,16.3,0,16.1,0
2003/4/3,8:30,13.2,0,68,0,18.1,0,60.8,0,14.1,0,16.3,0,16.2,0
2003/4/3,8:45,13.8,0,66,0,18.1,0,60.2,0,14.1,0,16.3,0,16.2,0
2003/4/3,9:00,14.4,0,62,0,18.1,0,59.9,0,14.2,0,16.3,0,16.2,0
2003/4/3,9:15,14.7,0,60,0,18.1,0,59.5,0,14.3,0,16.3,0,16.2,0
2003/4/3,9:30,15.3,0,58,0,18.1,0,59.3,0,14.3,0,16.3,0,16.2,0
2003/4/3,9:45,15.9,0,55,0,18.1,0,59.1,0,14.4,0,16.3,0,16.2,0
2003/4/3,10:00,16.1,0,56,0,18.1,0,59,0,14.5,0,16.3,0,16.3,0
2003/4/3,10:15,16.2,0,55,0,18.1,0,59,0,14.5,0,16.2,0,16.3,0
2003/4/3,10:30,16.4,0,55,0,18.2,0,58.8,0,14.6,0,16.2,0,16.4,0
2003/4/3,10:45,16.3,0,54,0,18.2,0,58.6,0,14.6,0,16.2,0,16.5,0
2003/4/3,11:00,16.6,0,53,0,18.3,0,58.4,0,14.7,0,16.2,0,16.5,0
2003/4/3,11:15,17,0,52,0,18.3,0,58.2,0,14.8,0,16.2,0,16.6,0
2003/4/3,11:30,17,0,54,0,18.3,0,58,0,14.8,0,16.2,0,16.7,0
2003/4/3,11:45,17.4,0,53,0,18.4,0,58,0,14.9,0,16.2,0,16.8,0
2003/4/3,12:00,17.2,0,52,0,18.5,0,57.8,0,15,0,16.2,0,16.9,0
2003/4/3,12:15,17.3,0,52,0,18.6,0,57.6,0,15,0,16.2,0,16.9,0
2003/4/3,12:30,17.5,0,51,0,18.7,0,57.4,0,15.1,0,16.2,0,17,0
2003/4/3,12:45,17.4,0,50,0,18.7,0,57.2,0,15.2,0,16.2,0,17.1,0
2003/4/3,13:00,17.4,0,51,0,18.8,0,56.9,0,15.3,0,16.2,0,17.2,0
2003/4/3,13:15,17.6,0,51,0,18.9,0,56.7,0,15.3,0,16.3,0,17.3,0
2003/4/3,13:30,17.5,0,52,0,19,0,56.4,0,15.4,0,16.3,0,17.4,0
2003/4/3,13:45,17.2,0,54,0,19,0,56.1,0,15.5,0,16.3,0,17.5,0
2003/4/3,14:00,17.4,0,53,0,19.1,0,55.9,0,15.6,0,16.3,0,17.5,0
2003/4/3,14:15,17.2,0,53,0,19.1,0,55.8,0,15.6,0,16.3,0,17.6,0
2003/4/3,14:30,17.1,0,53,0,19.1,0,55.7,0,15.7,0,16.3,0,17.7,0
2003/4/3,14:45,16.9,0,54,0,19.1,0,55.7,0,15.8,0,16.3,0,17.7,0
2003/4/3,15:00,16.7,0,54,0,19.1,0,55.6,0,15.8,0,16.4,0,17.8,0
2003/4/3,15:15,16.5,0,58,0,19.1,0,55.5,0,15.9,0,16.4,0,17.9,0
2003/4/3,15:30,16.2,0,58,0,19.1,0,55.6,0,16,0,16.4,0,17.9,0
2003/4/3,15:45,15.8,0,61,0,19.1,0,55.6,0,16,0,16.4,0,17.9,0
2003/4/3,16:00,15.6,0,62,0,19.1,0,55.6,0,16.1,0,16.4,0,17.9,0
2003/4/3,16:15,15.2,0,63,0,19.1,0,55.6,0,16.1,0,16.4,0,17.9,0
2003/4/3,16:30,15,0,65,0,19,0,55.6,0,16.2,0,16.4,0,17.9,0
2003/4/3,16:45,15.2,0,66,0,19,0,55.7,0,16.3,0,16.4,0,17.9,0
2003/4/3,17:00,15.2,0,66,0,19,0,55.8,0,16.3,0,16.4,0,17.9,0
2003/4/3,17:15,15.3,0,65,0,18.9,0,56,0,16.4,0,16.4,0,17.9,0
2003/4/3,17:30,15.2,0,65,0,18.9,0,56,0,16.4,0,16.4,0,17.9,0
2003/4/3,17:45,15.2,0,67,0,18.8,0,56.1,0,16.5,0,16.4,0,17.9,0
2003/4/3,18:00,14.9,0,69,0,18.8,0,56.3,0,16.5,0,16.4,0,17.9,0
2003/4/3,18:15,14.7,0,70,0,18.7,0,56.3,0,16.6,0,16.4,0,17.9,0
2003/4/3,18:30,14.5,0,72,0,18.7,0,56.5,0,16.6,0,16.4,0,17.9,0
2003/4/3,18:45,14.3,0,73,0,18.6,0,56.7,0,16.7,0,16.4,0,17.8,0
2003/4/3,19:00,14.2,0,74,0,18.6,0,56.8,0,16.7,0,16.4,0,17.7,0
2003/4/3,19:15,14,0,74,0,18.5,0,56.9,0,16.8,0,16.4,0,17.7,0
2003/4/3,19:30,13.9,0,75,0,18.5,0,57.1,0,16.8,0,16.4,0,17.6,0
2003/4/3,19:45,13.8,0,76,0,18.4,0,57.2,0,16.9,0,16.3,0,17.5,0
2003/4/3,20:00,13.7,0,77,0,18.4,0,57.3,0,16.9,0,16.3,0,17.4,0
2003/4/3,20:15,13.8,0,77,0,18.3,0,57.4,0,16.9,0,16.3,0,17.4,0
2003/4/3,20:30,13.6,0,77,0,18.3,0,57.5,0,17,0,16.3,0,17.3,0
2003/4/3,20:45,13.4,0,76,0,18.2,0,57.6,0,17,0,16.3,0,17.2,0
2003/4/3,21:00,13.4,0,77,0,18.1,0,57.7,0,17.1,0,16.3,0,17.2,0
2003/4/3,21:15,13.2,0,78,0,18.1,0,57.9,0,17.1,0,16.2,0,17.1,0
2003/4/3,21:30,13.4,0,77,0,18,0,57.9,0,17.1,0,16.2,0,17,0
2003/4/3,21:45,13.5,0,76,0,18,0,57.9,0,17.1,0,16.2,0,17,0
2003/4/3,22:00,13.5,0,76,0,17.9,0,58.1,0,17.2,0,16.2,0,17,0
2003/4/3,22:15,13.5,0,77,0,17.9,0,58.3,0,17.2,0,16.2,0,16.9,0
2003/4/3,22:30,13.5,0,76,0,17.8,0,58.2,0,17.2,0,16.2,0,16.9,0
2003/4/3,22:45,13.4,0,76,0,17.8,0,58.5,0,17.2,0,16.1,0,16.8,0
2003/4/3,23:00,13.4,0,77,0,17.7,0,59.1,0,17.3,0,16.2,0,16.8,0
2003/4/3,23:15,13.4,0,77,0,17.6,0,59.7,0,15.1,0,16.2,0,16.7,0
2003/4/3,23:30,13.4,0,81,0,17.6,0,60.2,0,15.2,0,16.2,0,16.7,0
2003/4/3,23:45,13.3,0,82,0,17.5,0,61.3,0,15.3,0,16.3,0,16.7,0
2003/4/4,0:00,13.3,0,83,0,17.6,0,61.8,0,15.4,0,16.3,0,16.7,0
2003/4/4,0:15,13.4,0,83,0,17.6,0,61.9,0,14.4,0,16.2,0,16.6,0
2003/4/4,0:30,13.2,0,83,0,17.6,0,61.8,0,14.4,0,16.2,0,16.6,0
2003/4/4,0:45,13.2,0,83,0,17.6,0,63.3,0,14.4,0,16.2,0,16.6,0
2003/4/4,1:00,13.1,0,85,0,17.7,0,63.5,0,14.5,0,16.2,0,16.5,0
2003/4/4,1:15,13,0,88,0,17.8,0,63.5,0,14.6,0,16.2,0,16.5,0
2003/4/4,1:30,12.8,0,89,0,17.9,0,63,0,14.7,0,16.2,0,16.4,0
2003/4/4,1:45,12.9,0,90,0,17.8,0,63,0,14.7,0,16.2,0,16.4,0
2003/4/4,2:00,12.7,0,91,0,17.8,0,63.6,0,14.8,0,16.2,0,16.4,0
2003/4/4,2:15,12.8,0,91,0,17.8,0,63.6,0,14.8,0,16.2,0,16.4,0
2003/4/4,2:30,12.8,0,92,0,17.7,0,63.5,0,14.9,0,16.2,0,16.4,0
2003/4/4,2:45,12.6,0,91,0,17.7,0,63.6,0,15,0,16.3,0,16.4,0
2003/4/4,3:00,12.6,0,90,0,17.6,0,63.5,0,15,0,16.2,0,16.4,0
2003/4/4,3:15,12.4,0,91,0,17.5,0,63.4,0,15.1,0,16.2,0,16.4,0
2003/4/4,3:30,12.5,0,92,0,17.4,0,63.5,0,15.1,0,16.2,0,16.4,0
2003/4/4,3:45,12.6,0,92,0,17.4,0,63.5,0,15.2,0,16.2,0,16.3,0
2003/4/4,4:00,12.4,0,93,0,17.3,0,63.6,0,15.2,0,16.2,0,16.3,0
2003/4/4,4:15,12.4,0,93,0,17.3,0,63.8,0,15.3,0,16.2,0,16.3,0
2003/4/4,4:30,12.3,0,93,0,17.2,0,63.8,0,15.4,0,16.2,0,16.3,0
2003/4/4,4:45,12.3,0,93,0,17.2,0,63.8,0,15.4,0,16.2,0,16.2,0
2003/4/4,5:00,12.3,0,94,0,17.1,0,64,0,15.5,0,16.2,0,16.2,0
2003/4/4,5:15,12.3,0,94,0,17.1,0,63.9,0,15.5,0,16.2,0,16.2,0
2003/4/4,5:30,12.2,0,93,0,17,0,64.1,0,15.6,0,16.2,0,16.1,0
2003/4/4,5:45,12.3,0,94,0,17,0,64.2,0,15.7,0,16.2,0,16.1,0
2003/4/4,6:00,12.3,0,95,0,16.9,0,64.2,0,15.7,0,16.1,0,16.1,0
2003/4/4,6:15,12.2,0,96,0,16.9,0,64.4,0,15.8,0,16.1,0,16.1,0
2003/4/4,6:30,12.3,0,95,0,16.8,0,64.5,0,15.8,0,16.1,0,16,0
2003/4/4,6:45,12.2,0,96,0,16.8,0,64.6,0,15.8,0,16.1,0,16,0
2003/4/4,7:00,12.3,0,96,0,16.7,0,64.7,0,15.9,0,16.1,0,16,0
2003/4/4,7:15,12.3,0,96,0,16.7,0,64.8,0,15.9,0,16.1,0,16,0
2003/4/4,7:30,12.3,0,97,0,16.6,0,64.2,0,16,0,16.1,0,15.9,0
2003/4/4,7:45,12.3,0,97,0,16.6,0,64.8,0,14.4,0,16.1,0,15.9,0
2003/4/4,8:00,12.3,0,97,0,16.7,0,66.2,0,14,0,16.1,0,15.9,0
2003/4/4,8:15,12.1,0,96,0,16.7,0,66.5,0,14.1,0,16.1,0,15.9,0
2003/4/4,8:30,12.2,0,97,0,16.7,0,66.4,0,14.1,0,16.1,0,15.9,0
2003/4/4,8:45,12.2,0,97,0,16.6,0,66.4,0,14.1,0,16.1,0,15.9,0
2003/4/4,9:00,12.2,0,97,0,16.6,0,66.4,0,14.2,0,16.1,0,15.9,0
2003/4/4,9:15,12,0,97,0,16.6,0,66.4,0,14.3,0,16.1,0,15.9,0
2003/4/4,9:30,12,0,97,0,16.5,0,66.4,0,14.3,0,16.1,0,15.8,0
2003/4/4,9:45,12.1,0,97,0,16.5,0,66.4,0,14.4,0,16,0,15.8,0
2003/4/4,10:00,12.1,0,97,0,16.5,0,66.6,0,14.5,0,16,0,15.8,0
2003/4/4,10:15,12.2,0,97,0,16.4,0,66.5,0,14.5,0,16,0,15.8,0
2003/4/4,10:30,12.3,0,97,0,16.4,0,66.6,0,14.5,0,16,0,15.8,0
2003/4/4,10:45,12.3,0,94,0,16.4,0,66.6,0,14.6,0,15.9,0,15.8,0
2003/4/4,11:00,12.3,0,94,0,16.4,0,66.8,0,14.7,0,15.9,0,15.8,0
2003/4/4,11:15,12.3,0,93,0,16.3,0,66.9,0,14.7,0,15.9,0,15.8,0
2003/4/4,11:30,12.5,0,91,0,16.3,0,66.9,0,14.8,0,15.9,0,15.8,0
2003/4/4,11:45,12.5,0,90,0,16.3,0,66.8,0,14.8,0,15.9,0,15.8,0
2003/4/4,12:00,12.6,0,89,0,16.3,0,66.9,0,14.9,0,15.9,0,15.8,0
2003/4/4,12:15,12.6,0,89,0,16.3,0,67,0,14.9,0,15.8,0,15.8,0
2003/4/4,12:30,12.6,0,90,0,16.3,0,67.2,0,15,0,15.8,0,15.8,0
2003/4/4,12:45,12.7,0,92,0,16.3,0,67.2,0,15.1,0,15.8,0,15.8,0
2003/4/4,13:00,12.6,0,93,0,16.3,0,67.1,0,15.1,0,15.8,0,15.8,0
2003/4/4,13:15,12.5,0,94,0,16.2,0,67,0,15.2,0,15.8,0,15.8,0
2003/4/4,13:30,12.3,0,92,0,16.2,0,67.2,0,15.2,0,15.8,0,15.8,0
2003/4/4,13:45,12.3,0,90,0,16.2,0,67.3,0,15.3,0,15.7,0,15.8,0
2003/4/4,14:00,12.5,0,89,0,16.2,0,67.5,0,15.4,0,15.7,0,15.8,0
2003/4/4,14:15,12.4,0,90,0,16.1,0,67.4,0,15.4,0,15.7,0,15.8,0
2003/4/4,14:30,12.3,0,87,0,16.1,0,67.4,0,15.5,0,15.7,0,15.8,0
2003/4/4,14:45,12,0,86,0,16.1,0,67.3,0,15.5,0,15.7,0,15.8,0
2003/4/4,15:00,11.8,0,84,0,16.1,0,67.3,0,15.6,0,15.7,0,15.7,0
2003/4/4,15:15,11.7,0,85,0,16.1,0,67.3,0,15.6,0,15.7,0,15.7,0
2003/4/4,15:30,11.8,0,84,0,16,0,67.2,0,15.7,0,15.7,0,15.7,0
2003/4/4,15:45,11.7,0,86,0,16,0,67,0,15.7,0,15.6,0,15.6,0
2003/4/4,16:00,11.7,0,86,0,15.9,0,66.8,0,15.8,0,15.6,0,15.6,0
2003/4/4,16:15,11.8,0,85,0,15.9,0,66.8,0,15.8,0,15.6,0,15.6,0
2003/4/4,16:30,12,0,85,0,15.9,0,66.6,0,15.9,0,15.6,0,15.5,0
2003/4/4,16:45,12,0,82,0,15.9,0,66.6,0,15.9,0,15.6,0,15.5,0
2003/4/4,17:00,12,0,82,0,15.8,0,66.7,0,16,0,15.6,0,15.5,0
2003/4/4,17:15,11.8,0,81,0,15.8,0,66.7,0,16,0,15.5,0,15.5,0
2003/4/4,17:30,11.8,0,81,0,15.8,0,66.6,0,16.1,0,15.5,0,15.5,0
2003/4/4,17:45,11.8,0,78,0,15.8,0,66.5,0,16.1,0,15.5,0,15.5,0
2003/4/4,18:00,11.6,0,77,0,15.7,0,66.2,0,16.1,0,15.5,0,15.5,0
2003/4/4,18:15,11.4,0,78,0,15.7,0,66.1,0,16.2,0,15.5,0,15.5,0
2003/4/4,18:30,11.4,0,80,0,15.7,0,65.7,0,16.2,0,15.5,0,15.4,0
2003/4/4,18:45,11.3,0,81,0,15.6,0,65.7,0,16.3,0,15.4,0,15.4,0
2003/4/4,19:00,11.2,0,80,0,15.6,0,65.2,0,16.3,0,15.4,0,15.3,0
2003/4/4,19:15,11.1,0,77,0,15.6,0,65.1,0,16.3,0,15.4,0,15.3,0
2003/4/4,19:30,11,0,79,0,15.6,0,65,0,16.3,0,15.4,0,15.2,0
2003/4/4,19:45,11,0,78,0,16.2,0,64.8,0,16.4,0,15.3,0,15.2,0
2003/4/4,20:00,10.9,0,78,0,17,0,63.8,0,16.4,0,15.3,0,15.1,0
2003/4/4,20:15,10.7,0,78,0,17.7,0,62.2,0,16.5,0,15.3,0,15.1,0
2003/4/4,20:30,10.8,0,77,0,18.4,0,60.4,0,16.5,0,15.3,0,15.1,0
2003/4/4,20:45,10.7,0,75,0,18.9,0,58.9,0,16.5,0,15.4,0,15.1,0
2003/4/4,21:00,10.7,0,75,0,19.6,0,57.3,0,16.5,0,15.4,0,15.1,0
2003/4/4,21:15,10.7,0,73,0,20,0,55.4,0,16.6,0,15.4,0,15.1,0
2003/4/4,21:30,10.7,0,73,0,20.2,0,53.9,0,14.3,0,15.4,0,15.1,0
2003/4/4,21:45,10.7,0,72,0,20.5,0,53.2,0,14.4,0,15.5,0,15.1,0
2003/4/4,22:00,10.7,0,73,0,20.9,0,52.6,0,14.4,0,15.5,0,15.1,0
2003/4/4,22:15,10.7,0,75,0,21.2,0,51.7,0,14.5,0,15.5,0,15.1,0
2003/4/4,22:30,10.1,0,83,0,21.4,0,50.9,0,14.5,0,15.5,0,15.1,0
2003/4/4,22:45,10.4,0,75,0,21.7,0,50.4,0,14.6,0,15.5,0,15,0
2003/4/4,23:00,10.5,0,71,0,21.9,0,50,0,14.7,0,15.5,0,15,0
2003/4/4,23:15,10.5,0,70,0,22.2,0,49.5,0,14.7,0,15.6,0,15,0
2003/4/4,23:30,10.6,0,69,0,22.2,0,48.7,0,14.8,0,15.6,0,14.9,0
2003/4/4,23:45,10.6,0,67,0,21.8,0,48.9,0,14.8,0,15.6,0,14.9,0
2003/4/5,0:00,10.7,0,65,0,21.4,0,49.3,0,14.9,0,15.6,0,14.9,0
2003/4/5,0:15,10.6,0,70,0,21,0,49.6,0,14.9,0,15.6,0,14.8,0
2003/4/5,0:30,10.5,0,69,0,20.7,0,50.1,0,15,0,15.5,0,14.8,0